Zurück zum Katalog

SL-16 DEB

AktivLEO
NORAD 22359·DEBRIS·🇷🇺 Russia

Gestartet Dec 25, 1992 von Baikonur Cosmodrome

Loading…

Nächste Überflüge (nächste 24 Stunden)

TLE

AktuellSource: Space-Track

Epoche: Sep 13, 2026, 17:16 UTC

1 22359U 92093AY  26256.71979037  .00000705  00000-0  48075-3 0  9997
2 22359  70.7382 124.6455 0159603   0.6245  56.7362 13.97394222703436

Verfolge SL-16 DEB in Echtzeit mit AllMySat

Download on the App Store